FAB2462 SBCG-SBGL

Flight info

Callsign FAB2462
Flight time 1h 57m
Altitude 21000
Route DCT ENROD Z22 DIDAB DCT DORLU Z49 VUREP DCT
Aircraft KC13/M-SDE3/C

Departure

Time 2026-04-18 08:35
Airport Campo Grande Airport (SBCG)

Arrival

Time 2026-04-18 10:32
Airport Rio Galeão – Tom Jobim International Airport (SBGL)
Time Latitude Longitude Altitude Speed Heading
2026-04-18 08:21 -20.46917 -54.67056 1850 ft 0 kts 42°
2026-04-18 08:25 -20.46917 -54.67055 1850 ft 0 kts 42°
2026-04-18 08:27 -20.46916 -54.67055 1850 ft 0 kts 41°
2026-04-18 08:27 -20.46909 -54.67048 1851 ft 5 kts 37°
2026-04-18 08:27 -20.46848 -54.67010 1851 ft 9 kts 30°
2026-04-18 08:27 -20.46748 -54.66936 1851 ft 23 kts 41°
2026-04-18 08:28 -20.46647 -54.66839 1851 ft 23 kts 42°
2026-04-18 08:28 -20.46516 -54.66711 1851 ft 28 kts 43°
2026-04-18 08:28 -20.46394 -54.66609 1850 ft 21 kts
2026-04-18 08:28 -20.46278 -54.66548 1851 ft 19 kts 30°
2026-04-18 08:29 -20.46180 -54.66604 1851 ft 23 kts 308°
2026-04-18 08:29 -20.46060 -54.66650 1851 ft 16 kts 351°
2026-04-18 08:29 -20.46008 -54.66694 1851 ft 6 kts 260°
2026-04-18 08:29 -20.46068 -54.66764 1851 ft 14 kts 223°
2026-04-18 08:30 -20.46181 -54.66877 1851 ft 28 kts 221°
2026-04-18 08:30 -20.46300 -54.66990 1851 ft 22 kts 223°
2026-04-18 08:30 -20.46417 -54.67105 1851 ft 21 kts 222°
2026-04-18 08:30 -20.46528 -54.67213 1851 ft 27 kts 222°
2026-04-18 08:31 -20.46671 -54.67350 1851 ft 29 kts 222°
2026-04-18 08:31 -20.46833 -54.67506 1851 ft 33 kts 221°
2026-04-18 08:31 -20.47010 -54.67676 1851 ft 35 kts 222°
2026-04-18 08:31 -20.47194 -54.67853 1851 ft 36 kts 222°
2026-04-18 08:32 -20.47380 -54.68032 1851 ft 34 kts 221°
2026-04-18 08:32 -20.47518 -54.68159 1851 ft 27 kts 221°
2026-04-18 08:32 -20.47631 -54.68273 1851 ft 24 kts 222°
2026-04-18 08:32 -20.47717 -54.68354 1851 ft 15 kts 218°
2026-04-18 08:33 -20.47798 -54.68320 1851 ft 17 kts 132°
2026-04-18 08:33 -20.47857 -54.68249 1851 ft 7 kts 108°
2026-04-18 08:33 -20.47825 -54.68187 1851 ft 11 kts 40°
2026-04-18 08:33 -20.47820 -54.68182 1851 ft 0 kts 40°
2026-04-18 08:34 -20.47740 -54.68106 1851 ft 52 kts 43°
2026-04-18 08:34 -20.47260 -54.67649 1851 ft 127 kts 42°
2026-04-18 08:34 -20.46518 -54.67002 2191 ft 146 kts 37°
2026-04-18 08:35 -20.45563 -54.66342 2491 ft 181 kts 31°
2026-04-18 08:35 -20.44547 -54.65390 2812 ft 207 kts 51°
2026-04-18 08:35 -20.43961 -54.63921 3165 ft 225 kts 77°
2026-04-18 08:35 -20.44001 -54.62195 3509 ft 241 kts 101°
2026-04-18 08:36 -20.44656 -54.60532 3862 ft 254 kts 118°
2026-04-18 08:36 -20.45647 -54.58919 4202 ft 265 kts 124°
2026-04-18 08:36 -20.46762 -54.57299 4534 ft 273 kts 126°
2026-04-18 08:36 -20.47903 -54.55638 4862 ft 279 kts 125°
2026-04-18 08:37 -20.49011 -54.53950 5183 ft 285 kts 124°
2026-04-18 08:37 -20.50117 -54.52164 5513 ft 289 kts 123°
2026-04-18 08:37 -20.51195 -54.50334 5840 ft 293 kts 122°
2026-04-18 08:37 -20.52251 -54.48468 6166 ft 296 kts 121°
2026-04-18 08:38 -20.53296 -54.46561 6493 ft 298 kts 120°
2026-04-18 08:38 -20.54325 -54.44637 6819 ft 300 kts 119°
2026-04-18 08:38 -20.55352 -54.42684 7145 ft 302 kts 119°
2026-04-18 08:38 -20.56375 -54.40715 7473 ft 303 kts 118°
2026-04-18 08:39 -20.57390 -54.38743 7798 ft 304 kts 118°
2026-04-18 08:39 -20.58412 -54.36749 8126 ft 305 kts 118°
2026-04-18 08:39 -20.59424 -54.34766 8450 ft 305 kts 118°
2026-04-18 08:39 -20.60442 -54.32767 8778 ft 306 kts 118°
2026-04-18 08:40 -20.61466 -54.30755 9103 ft 307 kts 118°
2026-04-18 08:40 -20.62484 -54.28752 9431 ft 307 kts 118°
2026-04-18 08:40 -20.63499 -54.26752 9754 ft 308 kts 118°
2026-04-18 08:40 -20.64529 -54.24725 10083 ft 308 kts 118°
2026-04-18 08:41 -20.65550 -54.22713 10406 ft 309 kts 118°
2026-04-18 08:41 -20.66577 -54.20688 10733 ft 310 kts 118°
2026-04-18 08:41 -20.67609 -54.18656 11060 ft 311 kts 118°
2026-04-18 08:41 -20.68639 -54.16625 11384 ft 312 kts 118°
2026-04-18 08:42 -20.69666 -54.14600 11709 ft 312 kts 118°
2026-04-18 08:42 -20.70710 -54.12540 12037 ft 313 kts 118°
2026-04-18 08:42 -20.71745 -54.10501 12361 ft 313 kts 118°
2026-04-18 08:42 -20.72789 -54.08442 12688 ft 314 kts 118°
2026-04-18 08:43 -20.73818 -54.06383 13014 ft 314 kts 117°
2026-04-18 08:43 -20.74769 -54.04285 13344 ft 315 kts 114°
2026-04-18 08:43 -20.75661 -54.02141 13671 ft 315 kts 113°
2026-04-18 08:43 -20.76505 -53.99989 13995 ft 315 kts 112°
2026-04-18 08:44 -20.77333 -53.97793 14323 ft 316 kts 111°
2026-04-18 08:44 -20.78135 -53.95611 14648 ft 316 kts 111°
2026-04-18 08:44 -20.78928 -53.93415 14973 ft 317 kts 111°
2026-04-18 08:44 -20.79715 -53.91214 15299 ft 317 kts 111°
2026-04-18 08:45 -20.80504 -53.88996 15626 ft 317 kts 111°
2026-04-18 08:45 -20.81287 -53.86784 15952 ft 318 kts 111°
2026-04-18 08:45 -20.82059 -53.84600 16273 ft 318 kts 111°
2026-04-18 08:45 -20.82844 -53.82376 16600 ft 318 kts 111°
2026-04-18 08:46 -20.83623 -53.80168 16924 ft 319 kts 111°
2026-04-18 08:46 -20.84410 -53.77935 17252 ft 319 kts 111°
2026-04-18 08:46 -20.85192 -53.75717 17577 ft 319 kts 111°
2026-04-18 08:46 -20.85975 -53.73495 17902 ft 319 kts 111°
2026-04-18 08:47 -20.86757 -53.71274 18214 ft 319 kts 111°
2026-04-18 08:47 -20.87547 -53.69032 18475 ft 321 kts 112°
2026-04-18 08:47 -20.88322 -53.66833 18690 ft 324 kts 112°
2026-04-18 08:47 -20.89125 -53.64555 18894 ft 326 kts 112°
2026-04-18 08:48 -20.89938 -53.62249 19098 ft 328 kts 112°
2026-04-18 08:48 -20.90741 -53.59968 19298 ft 329 kts 112°
2026-04-18 08:48 -20.91552 -53.57663 19500 ft 330 kts 112°
2026-04-18 08:48 -20.92358 -53.55372 19699 ft 331 kts 112°
2026-04-18 08:49 -20.93164 -53.53079 19898 ft 332 kts 112°
2026-04-18 08:49 -20.93980 -53.50758 20099 ft 332 kts 112°
2026-04-18 08:49 -20.94791 -53.48446 20300 ft 332 kts 112°
2026-04-18 08:49 -20.95601 -53.46138 20499 ft 332 kts 112°
2026-04-18 08:50 -20.96416 -53.43813 20696 ft 332 kts 112°
2026-04-18 08:50 -20.97230 -53.41492 20840 ft 334 kts 112°
2026-04-18 08:50 -20.98049 -53.39157 20916 ft 338 kts 112°
2026-04-18 08:50 -20.98882 -53.36784 20936 ft 342 kts 112°
2026-04-18 08:51 -20.99724 -53.34383 20939 ft 347 kts 112°
2026-04-18 08:51 -21.00575 -53.31954 20939 ft 350 kts 112°
2026-04-18 08:51 -21.01433 -53.29505 20939 ft 353 kts 112°
2026-04-18 08:51 -21.02299 -53.27030 20939 ft 355 kts 112°
2026-04-18 08:52 -21.03167 -53.24547 20938 ft 357 kts 112°
2026-04-18 08:52 -21.04038 -53.22053 20938 ft 358 kts 112°
2026-04-18 08:52 -21.04910 -53.19556 20938 ft 359 kts 112°
2026-04-18 08:52 -21.05773 -53.17082 20938 ft 359 kts 112°
2026-04-18 08:53 -21.06648 -53.14571 20938 ft 360 kts 112°
2026-04-18 08:53 -21.07526 -53.12050 20938 ft 360 kts 112°
2026-04-18 08:53 -21.08399 -53.09540 20938 ft 361 kts 112°
2026-04-18 08:53 -21.09277 -53.07012 20938 ft 361 kts 112°
2026-04-18 08:54 -21.10153 -53.04489 20938 ft 361 kts 112°
2026-04-18 08:54 -21.11027 -53.01970 20938 ft 361 kts 112°
2026-04-18 08:54 -21.11890 -52.99483 20938 ft 361 kts 112°
2026-04-18 08:54 -21.12764 -52.96961 20938 ft 361 kts 112°
2026-04-18 08:55 -21.13639 -52.94434 20938 ft 361 kts 112°
2026-04-18 08:55 -21.14516 -52.91904 20938 ft 361 kts 112°
2026-04-18 08:55 -21.15398 -52.89357 20938 ft 361 kts 112°
2026-04-18 08:55 -21.16262 -52.86860 20938 ft 361 kts 112°
2026-04-18 08:56 -21.17136 -52.84332 20938 ft 361 kts 112°
2026-04-18 08:56 -21.18010 -52.81803 20938 ft 361 kts 112°
2026-04-18 08:56 -21.18878 -52.79291 20938 ft 361 kts 112°
2026-04-18 08:56 -21.19742 -52.76791 20938 ft 361 kts 112°
2026-04-18 08:57 -21.21199 -52.72570 20938 ft 361 kts 112°
2026-04-18 08:57 -21.22075 -52.70030 20938 ft 361 kts 112°
2026-04-18 08:57 -21.22947 -52.67500 20938 ft 361 kts 112°
2026-04-18 08:58 -21.23818 -52.64972 20938 ft 361 kts 112°
2026-04-18 08:58 -21.24689 -52.62444 20938 ft 361 kts 112°
2026-04-18 08:58 -21.25558 -52.59918 20938 ft 361 kts 112°
2026-04-18 08:58 -21.26430 -52.57383 20938 ft 361 kts 112°
2026-04-18 08:59 -21.27302 -52.54846 20938 ft 361 kts 112°
2026-04-18 08:59 -21.28171 -52.52318 20938 ft 361 kts 112°
2026-04-18 08:59 -21.29043 -52.49777 20938 ft 361 kts 112°
2026-04-18 08:59 -21.29894 -52.47294 20938 ft 361 kts 112°
2026-04-18 09:00 -21.30760 -52.44769 20938 ft 360 kts 112°
2026-04-18 09:00 -21.31626 -52.42243 20938 ft 360 kts 112°
2026-04-18 09:00 -21.32489 -52.39726 20938 ft 360 kts 112°
2026-04-18 09:00 -21.33353 -52.37205 20938 ft 359 kts 112°
2026-04-18 09:01 -21.34214 -52.34690 20938 ft 359 kts 112°
2026-04-18 09:01 -21.35078 -52.32165 20938 ft 359 kts 112°
2026-04-18 09:01 -21.35942 -52.29639 20938 ft 359 kts 112°
2026-04-18 09:01 -21.36800 -52.27129 20938 ft 359 kts 112°
2026-04-18 09:02 -21.37654 -52.24629 20938 ft 359 kts 112°
2026-04-18 09:02 -21.38511 -52.22119 20938 ft 359 kts 112°
2026-04-18 09:02 -21.39383 -52.19564 20938 ft 359 kts 112°
2026-04-18 09:02 -21.40233 -52.17073 20938 ft 359 kts 112°
2026-04-18 09:03 -21.41093 -52.14547 20938 ft 359 kts 112°
2026-04-18 09:03 -21.41948 -52.12039 20938 ft 359 kts 112°
2026-04-18 09:03 -21.42809 -52.09510 20938 ft 359 kts 112°
2026-04-18 09:03 -21.43648 -52.07046 20938 ft 359 kts 112°
2026-04-18 09:04 -21.44513 -52.04503 20938 ft 359 kts 112°
2026-04-18 09:04 -21.45372 -52.01977 20938 ft 359 kts 112°
2026-04-18 09:04 -21.46227 -51.99460 20938 ft 359 kts 112°
2026-04-18 09:04 -21.47083 -51.96941 20938 ft 359 kts 112°
2026-04-18 09:05 -21.47934 -51.94432 20938 ft 359 kts 112°
2026-04-18 09:05 -21.48792 -51.91901 20938 ft 359 kts 112°
2026-04-18 09:05 -21.49643 -51.89387 20938 ft 359 kts 112°
2026-04-18 09:05 -21.50487 -51.86892 20938 ft 359 kts 112°
2026-04-18 09:06 -21.51330 -51.84399 20938 ft 359 kts 112°
2026-04-18 09:06 -21.52186 -51.81866 20938 ft 359 kts 112°
2026-04-18 09:06 -21.53039 -51.79343 20938 ft 359 kts 112°
2026-04-18 09:06 -21.53882 -51.76846 20938 ft 359 kts 112°
2026-04-18 09:07 -21.54745 -51.74291 20938 ft 359 kts 112°
2026-04-18 09:07 -21.55590 -51.71785 20938 ft 359 kts 112°
2026-04-18 09:07 -21.56444 -51.69253 20938 ft 359 kts 112°
2026-04-18 09:07 -21.57285 -51.66758 20938 ft 359 kts 112°
2026-04-18 09:08 -21.58134 -51.64238 20938 ft 359 kts 112°
2026-04-18 09:08 -21.58980 -51.61726 20938 ft 359 kts 112°
2026-04-18 09:08 -21.59846 -51.59154 20938 ft 359 kts 112°
2026-04-18 09:08 -21.60684 -51.56664 20938 ft 359 kts 112°
2026-04-18 09:09 -21.61530 -51.54148 20938 ft 359 kts 112°
2026-04-18 09:09 -21.62379 -51.51619 20938 ft 359 kts 112°
2026-04-18 09:09 -21.63226 -51.49098 20938 ft 359 kts 112°
2026-04-18 09:09 -21.64072 -51.46579 20938 ft 359 kts 112°
2026-04-18 09:10 -21.64918 -51.44056 20938 ft 359 kts 112°
2026-04-18 09:10 -21.65761 -51.41543 20938 ft 359 kts 112°
2026-04-18 09:10 -21.66604 -51.39024 20938 ft 359 kts 112°
2026-04-18 09:10 -21.67449 -51.36502 20938 ft 359 kts 112°
2026-04-18 09:11 -21.68304 -51.33948 20938 ft 359 kts 112°
2026-04-18 09:11 -21.69149 -51.31421 20938 ft 359 kts 112°
2026-04-18 09:11 -21.69992 -51.28901 20938 ft 359 kts 112°
2026-04-18 09:11 -21.70820 -51.26424 20938 ft 359 kts 112°
2026-04-18 09:12 -21.71681 -51.23843 20938 ft 359 kts 112°
2026-04-18 09:12 -21.72509 -51.21364 20938 ft 359 kts 112°
2026-04-18 09:12 -21.73356 -51.18826 20938 ft 359 kts 112°
2026-04-18 09:12 -21.74198 -51.16299 20938 ft 359 kts 112°
2026-04-18 09:13 -21.75036 -51.13785 20937 ft 359 kts 112°
2026-04-18 09:13 -21.75882 -51.11245 20935 ft 359 kts 112°
2026-04-18 09:13 -21.76726 -51.08709 20934 ft 359 kts 112°
2026-04-18 09:13 -21.77560 -51.06203 20934 ft 359 kts 112°
2026-04-18 09:14 -21.78400 -51.03675 20934 ft 359 kts 112°
2026-04-18 09:14 -21.79251 -51.01114 20934 ft 359 kts 112°
2026-04-18 09:14 -21.80095 -50.98575 20934 ft 359 kts 112°
2026-04-18 09:14 -21.80932 -50.96053 20934 ft 359 kts 111°
2026-04-18 09:15 -21.81758 -50.93563 20934 ft 359 kts 111°
2026-04-18 09:15 -21.82607 -50.91002 20934 ft 359 kts 111°
2026-04-18 09:15 -21.83442 -50.88484 20934 ft 359 kts 111°
2026-04-18 09:15 -21.84280 -50.85954 20934 ft 359 kts 111°
2026-04-18 09:16 -21.85120 -50.83418 20934 ft 359 kts 111°
2026-04-18 09:16 -21.85957 -50.80887 20934 ft 359 kts 111°
2026-04-18 09:16 -21.86795 -50.78349 20934 ft 359 kts 111°
2026-04-18 09:16 -21.87621 -50.75848 20934 ft 359 kts 111°
2026-04-18 09:17 -21.88454 -50.73320 20934 ft 359 kts 111°
2026-04-18 09:17 -21.89301 -50.70750 20934 ft 359 kts 111°
2026-04-18 09:17 -21.90124 -50.68253 20934 ft 359 kts 111°
2026-04-18 09:17 -21.90968 -50.65689 20934 ft 359 kts 111°
2026-04-18 09:18 -21.91793 -50.63181 20934 ft 359 kts 111°
2026-04-18 09:18 -21.92627 -50.60646 20934 ft 359 kts 111°
2026-04-18 09:18 -21.93460 -50.58113 20934 ft 359 kts 111°
2026-04-18 09:18 -21.94298 -50.55563 20934 ft 359 kts 111°
2026-04-18 09:19 -21.95131 -50.53029 20934 ft 359 kts 111°
2026-04-18 09:19 -21.95964 -50.50492 20934 ft 359 kts 111°
2026-04-18 09:19 -21.96788 -50.47980 20934 ft 359 kts 111°
2026-04-18 09:19 -21.97632 -50.45407 20934 ft 359 kts 111°
2026-04-18 09:20 -21.98450 -50.42911 20934 ft 359 kts 111°
2026-04-18 09:20 -21.99282 -50.40373 20934 ft 359 kts 111°
2026-04-18 09:20 -22.00113 -50.37835 20934 ft 359 kts 111°
2026-04-18 09:20 -22.00941 -50.35303 20934 ft 359 kts 111°
2026-04-18 09:21 -22.01777 -50.32750 20934 ft 359 kts 111°
2026-04-18 09:21 -22.02606 -50.30212 20934 ft 359 kts 111°
2026-04-18 09:21 -22.03426 -50.27703 20934 ft 359 kts 111°
2026-04-18 09:21 -22.04258 -50.25153 20934 ft 359 kts 111°
2026-04-18 09:22 -22.05087 -50.22616 20934 ft 359 kts 111°
2026-04-18 09:22 -22.05908 -50.20097 20934 ft 359 kts 111°
2026-04-18 09:22 -22.06746 -50.17526 20934 ft 359 kts 111°
2026-04-18 09:22 -22.07560 -50.15028 20934 ft 359 kts 111°
2026-04-18 09:23 -22.08401 -50.12447 20934 ft 359 kts 111°
2026-04-18 09:23 -22.09214 -50.09949 20934 ft 359 kts 111°
2026-04-18 09:23 -22.10043 -50.07397 20934 ft 359 kts 111°
2026-04-18 09:23 -22.10864 -50.04870 20934 ft 359 kts 111°
2026-04-18 09:24 -22.11681 -50.02348 20934 ft 359 kts 111°
2026-04-18 09:24 -22.12516 -49.99774 20934 ft 359 kts 111°
2026-04-18 09:24 -22.13347 -49.97207 20934 ft 359 kts 111°
2026-04-18 09:24 -22.14160 -49.94697 20934 ft 359 kts 111°
2026-04-18 09:25 -22.14982 -49.92157 20934 ft 359 kts 111°
2026-04-18 09:25 -22.15808 -49.89604 20934 ft 359 kts 111°
2026-04-18 09:25 -22.16633 -49.87053 20934 ft 359 kts 111°
2026-04-18 09:25 -22.17451 -49.84522 20934 ft 359 kts 111°
2026-04-18 09:26 -22.18271 -49.81984 20934 ft 359 kts 111°
2026-04-18 09:26 -22.19088 -49.79455 20934 ft 359 kts 111°
2026-04-18 09:26 -22.19923 -49.76866 20934 ft 359 kts 111°
2026-04-18 09:26 -22.20739 -49.74336 20934 ft 359 kts 111°
2026-04-18 09:27 -22.21552 -49.71814 20934 ft 359 kts 111°
2026-04-18 09:27 -22.22373 -49.69266 20934 ft 359 kts 111°
2026-04-18 09:27 -22.23199 -49.66700 20934 ft 359 kts 111°
2026-04-18 09:27 -22.24020 -49.64150 20934 ft 359 kts 111°
2026-04-18 09:28 -22.24838 -49.61605 20934 ft 359 kts 111°
2026-04-18 09:28 -22.25659 -49.59052 20934 ft 359 kts 111°
2026-04-18 09:28 -22.26467 -49.56535 20934 ft 359 kts 111°
2026-04-18 09:28 -22.27285 -49.53987 20934 ft 359 kts 111°
2026-04-18 09:29 -22.28096 -49.51459 20934 ft 359 kts 111°
2026-04-18 09:29 -22.28928 -49.48865 20934 ft 359 kts 111°
2026-04-18 09:29 -22.29730 -49.46361 20934 ft 359 kts 111°
2026-04-18 09:29 -22.30560 -49.43770 20934 ft 359 kts 111°
2026-04-18 09:30 -22.31367 -49.41248 20934 ft 359 kts 111°
2026-04-18 09:30 -22.32180 -49.38708 20934 ft 359 kts 111°
2026-04-18 09:30 -22.32999 -49.36147 20934 ft 359 kts 111°
2026-04-18 09:30 -22.33815 -49.33593 20934 ft 359 kts 111°
2026-04-18 09:31 -22.34632 -49.31033 20934 ft 359 kts 111°
2026-04-18 09:31 -22.35436 -49.28517 20934 ft 359 kts 111°
2026-04-18 09:31 -22.36259 -49.25936 20934 ft 359 kts 111°
2026-04-18 09:31 -22.37073 -49.23384 20934 ft 359 kts 111°
2026-04-18 09:32 -22.37891 -49.20816 20934 ft 359 kts 111°
2026-04-18 09:32 -22.38701 -49.18261 20934 ft 359 kts 111°
2026-04-18 09:32 -22.39506 -49.15696 20934 ft 359 kts 111°
2026-04-18 09:32 -22.40304 -49.13139 20934 ft 359 kts 110°
2026-04-18 09:33 -22.41080 -49.10644 20934 ft 359 kts 110°
2026-04-18 09:33 -22.41886 -49.08045 20934 ft 359 kts 110°
2026-04-18 09:33 -22.42678 -49.05488 20934 ft 359 kts 110°
2026-04-18 09:33 -22.43474 -49.02912 20934 ft 359 kts 110°
2026-04-18 09:34 -22.44264 -49.00355 20934 ft 359 kts 110°
2026-04-18 09:34 -22.45058 -48.97786 20934 ft 359 kts 110°
2026-04-18 09:34 -22.45850 -48.95220 20934 ft 359 kts 110°
2026-04-18 09:34 -22.46639 -48.92661 20934 ft 359 kts 110°
2026-04-18 09:35 -22.47434 -48.90080 20934 ft 359 kts 110°
2026-04-18 09:35 -22.48215 -48.87545 20934 ft 359 kts 110°
2026-04-18 09:35 -22.49013 -48.84956 20934 ft 359 kts 110°
2026-04-18 09:35 -22.49537 -48.83253 20934 ft 359 kts 110°
2026-04-18 09:36 -22.50591 -48.79826 20934 ft 359 kts 110°
2026-04-18 09:36 -22.51115 -48.78121 20934 ft 359 kts 110°
2026-04-18 09:36 -22.51905 -48.75551 20934 ft 359 kts 110°
2026-04-18 09:36 -22.52693 -48.72985 20934 ft 359 kts 110°
2026-04-18 09:37 -22.53483 -48.70412 20934 ft 359 kts 110°
2026-04-18 09:37 -22.54264 -48.67866 20934 ft 359 kts 110°
2026-04-18 09:37 -22.55061 -48.65266 20934 ft 360 kts 110°
2026-04-18 09:37 -22.55841 -48.62719 20934 ft 360 kts 110°
2026-04-18 09:38 -22.56631 -48.60141 20934 ft 361 kts 110°
2026-04-18 09:38 -22.57424 -48.57550 20936 ft 362 kts 110°
2026-04-18 09:38 -22.58217 -48.54957 20937 ft 363 kts 110°
2026-04-18 09:38 -22.59016 -48.52347 20937 ft 364 kts 110°
2026-04-18 09:39 -22.59798 -48.49787 20937 ft 365 kts 110°
2026-04-18 09:39 -22.60605 -48.47163 20937 ft 365 kts 110°
2026-04-18 09:39 -22.61410 -48.44557 20937 ft 365 kts 110°
2026-04-18 09:39 -22.62217 -48.41954 20937 ft 365 kts 110°
2026-04-18 09:40 -22.63023 -48.39356 20938 ft 365 kts 110°
2026-04-18 09:40 -22.63829 -48.36762 20938 ft 365 kts 111°
2026-04-18 09:40 -22.64636 -48.34168 20938 ft 365 kts 111°
2026-04-18 09:40 -22.65448 -48.31555 20938 ft 365 kts 111°
2026-04-18 09:41 -22.66271 -48.28907 20938 ft 365 kts 111°
2026-04-18 09:41 -22.67069 -48.26339 20938 ft 365 kts 111°
2026-04-18 09:41 -22.67880 -48.23723 20937 ft 365 kts 111°
2026-04-18 09:41 -22.68686 -48.21124 20935 ft 365 kts 111°
2026-04-18 09:42 -22.69498 -48.18508 20935 ft 365 kts 111°
2026-04-18 09:42 -22.70305 -48.15906 20935 ft 365 kts 111°
2026-04-18 09:42 -22.71110 -48.13308 20936 ft 364 kts 111°
2026-04-18 09:42 -22.71919 -48.10697 20936 ft 364 kts 111°
2026-04-18 09:43 -22.72726 -48.08088 20936 ft 364 kts 111°
2026-04-18 09:43 -22.73530 -48.05490 20937 ft 364 kts 111°
2026-04-18 09:43 -22.74340 -48.02867 20939 ft 364 kts 111°
2026-04-18 09:43 -22.75132 -48.00304 20940 ft 364 kts 111°
2026-04-18 09:44 -22.75933 -47.97710 20941 ft 364 kts 111°
2026-04-18 09:44 -22.76740 -47.95093 20941 ft 364 kts 111°
2026-04-18 09:44 -22.77549 -47.92471 20941 ft 364 kts 111°
2026-04-18 09:44 -22.78350 -47.89869 20941 ft 364 kts 111°
2026-04-18 09:45 -22.79140 -47.87307 20941 ft 364 kts 110°
2026-04-18 09:45 -22.79948 -47.84679 20940 ft 364 kts 110°
2026-04-18 09:45 -22.80749 -47.82062 20940 ft 364 kts 110°
2026-04-18 09:45 -22.81534 -47.79456 20940 ft 365 kts 110°
2026-04-18 09:46 -22.82311 -47.76845 20940 ft 365 kts 110°
2026-04-18 09:46 -22.83086 -47.74218 20940 ft 365 kts 110°
2026-04-18 09:46 -22.83858 -47.71590 20940 ft 365 kts 110°
2026-04-18 09:46 -22.84627 -47.68962 20940 ft 365 kts 110°
2026-04-18 09:47 -22.85398 -47.66320 20940 ft 366 kts 110°
2026-04-18 09:47 -22.86154 -47.63728 20939 ft 366 kts 110°
2026-04-18 09:47 -22.86922 -47.61089 20939 ft 366 kts 110°
2026-04-18 09:47 -22.87688 -47.58456 20939 ft 366 kts 110°
2026-04-18 09:48 -22.88455 -47.55819 20937 ft 367 kts 110°
2026-04-18 09:48 -22.89225 -47.53174 20936 ft 367 kts 110°
2026-04-18 09:48 -22.89994 -47.50529 20936 ft 367 kts 110°
2026-04-18 09:48 -22.90756 -47.47907 20936 ft 368 kts 110°
2026-04-18 09:49 -22.91522 -47.45264 20936 ft 368 kts 110°
2026-04-18 09:49 -22.92286 -47.42624 20936 ft 368 kts 110°
2026-04-18 09:49 -22.93053 -47.39974 20936 ft 368 kts 110°
2026-04-18 09:49 -22.93824 -47.37307 20936 ft 368 kts 110°
2026-04-18 09:50 -22.94590 -47.34658 20937 ft 368 kts 110°
2026-04-18 09:50 -22.95355 -47.32009 20935 ft 368 kts 110°
2026-04-18 09:50 -22.96113 -47.29381 20935 ft 368 kts 110°
2026-04-18 09:50 -22.96877 -47.26735 20934 ft 368 kts 110°
2026-04-18 09:51 -22.97642 -47.24081 20934 ft 368 kts 110°
2026-04-18 09:51 -22.98406 -47.21431 20934 ft 368 kts 110°
2026-04-18 09:51 -22.99172 -47.18773 20934 ft 368 kts 110°
2026-04-18 09:51 -22.99912 -47.16143 20934 ft 368 kts 109°
2026-04-18 09:52 -23.00593 -47.13412 20935 ft 369 kts 107°
2026-04-18 09:52 -23.01206 -47.10700 20935 ft 369 kts 105°
2026-04-18 09:52 -23.01782 -47.07981 20934 ft 369 kts 105°
2026-04-18 09:52 -23.02333 -47.05260 20934 ft 370 kts 104°
2026-04-18 09:53 -23.02870 -47.02535 20934 ft 370 kts 104°
2026-04-18 09:53 -23.03400 -46.99802 20934 ft 370 kts 104°
2026-04-18 09:53 -23.03926 -46.97059 20934 ft 370 kts 104°
2026-04-18 09:53 -23.04441 -46.94362 20934 ft 370 kts 104°
2026-04-18 09:54 -23.04956 -46.91652 20934 ft 370 kts 104°
2026-04-18 09:54 -23.05486 -46.88863 20934 ft 370 kts 104°
2026-04-18 09:54 -23.06006 -46.86127 20934 ft 370 kts 104°
2026-04-18 09:54 -23.06517 -46.83432 20934 ft 370 kts 104°
2026-04-18 09:55 -23.07035 -46.80706 20934 ft 370 kts 104°
2026-04-18 09:55 -23.07564 -46.77918 20934 ft 370 kts 104°
2026-04-18 09:55 -23.08083 -46.75182 20934 ft 370 kts 104°
2026-04-18 09:55 -23.08607 -46.72418 20934 ft 370 kts 104°
2026-04-18 09:56 -23.09129 -46.69667 20934 ft 370 kts 104°
2026-04-18 09:56 -23.09648 -46.66925 20934 ft 370 kts 104°
2026-04-18 09:56 -23.10163 -46.64209 20934 ft 370 kts 104°
2026-04-18 09:56 -23.10688 -46.61434 20934 ft 370 kts 104°
2026-04-18 09:57 -23.11197 -46.58740 20934 ft 370 kts 104°
2026-04-18 09:57 -23.11717 -46.55989 20934 ft 370 kts 104°
2026-04-18 09:57 -23.12234 -46.53253 20934 ft 370 kts 104°
2026-04-18 09:57 -23.12746 -46.50535 20934 ft 370 kts 104°
2026-04-18 09:58 -23.13265 -46.47780 20934 ft 370 kts 104°
2026-04-18 09:58 -23.13784 -46.45026 20934 ft 370 kts 104°
2026-04-18 09:58 -23.14298 -46.42291 20934 ft 370 kts 104°
2026-04-18 09:58 -23.14814 -46.39546 20934 ft 370 kts 104°
2026-04-18 09:59 -23.15322 -46.36837 20934 ft 370 kts 104°
2026-04-18 09:59 -23.15838 -46.34088 20934 ft 370 kts 104°
2026-04-18 09:59 -23.16350 -46.31353 20934 ft 370 kts 104°
2026-04-18 10:00 -23.17376 -46.25871 20934 ft 370 kts 104°
2026-04-18 10:00 -23.17888 -46.23130 20934 ft 370 kts 104°
2026-04-18 10:00 -23.18402 -46.20373 20934 ft 370 kts 104°
2026-04-18 10:00 -23.18912 -46.17638 20934 ft 370 kts 104°
2026-04-18 10:01 -23.19424 -46.14888 20934 ft 370 kts 104°
2026-04-18 10:01 -23.19936 -46.12138 20934 ft 370 kts 104°
2026-04-18 10:01 -23.20445 -46.09402 20934 ft 370 kts 104°
2026-04-18 10:01 -23.20953 -46.06664 20934 ft 370 kts 104°
2026-04-18 10:02 -23.21463 -46.03911 20934 ft 370 kts 104°
2026-04-18 10:02 -23.21966 -46.01199 20934 ft 370 kts 104°
2026-04-18 10:02 -23.22472 -45.98465 20934 ft 370 kts 104°
2026-04-18 10:02 -23.22981 -45.95713 20934 ft 370 kts 103°
2026-04-18 10:03 -23.23490 -45.92960 20934 ft 370 kts 103°
2026-04-18 10:03 -23.23997 -45.90209 20934 ft 370 kts 103°
2026-04-18 10:03 -23.24501 -45.87476 20934 ft 370 kts 103°
2026-04-18 10:03 -23.25004 -45.84745 20934 ft 370 kts 103°
2026-04-18 10:04 -23.25513 -45.81981 20934 ft 370 kts 103°
2026-04-18 10:04 -23.26016 -45.79247 20934 ft 370 kts 103°
2026-04-18 10:04 -23.26519 -45.76502 20935 ft 370 kts 103°
2026-04-18 10:04 -23.27026 -45.73739 20935 ft 370 kts 103°
2026-04-18 10:05 -23.27530 -45.70992 20935 ft 370 kts 103°
2026-04-18 10:05 -23.28034 -45.68243 20937 ft 370 kts 103°
2026-04-18 10:05 -23.28534 -45.65511 20938 ft 370 kts 103°
2026-04-18 10:05 -23.29038 -45.62749 20939 ft 370 kts 103°
2026-04-18 10:06 -23.29535 -45.60026 20938 ft 370 kts 103°
2026-04-18 10:06 -23.30035 -45.57282 20938 ft 371 kts 103°
2026-04-18 10:06 -23.30540 -45.54513 20938 ft 371 kts 103°
2026-04-18 10:06 -23.31039 -45.51770 20938 ft 370 kts 103°
2026-04-18 10:07 -23.31539 -45.49016 20938 ft 370 kts 103°
2026-04-18 10:07 -23.32027 -45.46333 20939 ft 370 kts 103°
2026-04-18 10:07 -23.32537 -45.43526 20942 ft 370 kts 103°
2026-04-18 10:07 -23.33038 -45.40768 20943 ft 370 kts 103°
2026-04-18 10:08 -23.33535 -45.38023 20944 ft 370 kts 103°
2026-04-18 10:08 -23.34000 -45.35264 20943 ft 371 kts 100°
2026-04-18 10:08 -23.34141 -45.32494 20947 ft 372 kts 91°
2026-04-18 10:08 -23.33993 -45.29688 20948 ft 373 kts 86°
2026-04-18 10:09 -23.33654 -45.26889 20948 ft 374 kts 82°
2026-04-18 10:09 -23.33189 -45.24083 20948 ft 374 kts 80°
2026-04-18 10:09 -23.32652 -45.21307 20951 ft 374 kts 78°
2026-04-18 10:09 -23.32073 -45.18541 20760 ft 378 kts 77°
2026-04-18 10:10 -23.31466 -45.15763 20494 ft 382 kts 77°
2026-04-18 10:10 -23.30836 -45.12936 20263 ft 383 kts 77°
2026-04-18 10:10 -23.30198 -45.10096 20036 ft 384 kts 77°
2026-04-18 10:10 -23.29779 -45.08237 19888 ft 385 kts 77°
2026-04-18 10:11 -23.28942 -45.04503 19591 ft 385 kts 77°
2026-04-18 10:11 -23.28514 -45.02585 19438 ft 382 kts 77°
2026-04-18 10:11 -23.27893 -44.99796 19212 ft 377 kts 77°
2026-04-18 10:11 -23.27306 -44.97143 18994 ft 373 kts 77°
2026-04-18 10:12 -23.26824 -44.94953 18813 ft 370 kts 77°
2026-04-18 10:12 -23.26218 -44.92199 18584 ft 368 kts 77°
2026-04-18 10:12 -23.25629 -44.89512 18346 ft 364 kts 77°
2026-04-18 10:12 -23.25046 -44.86843 18094 ft 357 kts 77°
2026-04-18 10:13 -23.24480 -44.84249 17844 ft 352 kts 77°
2026-04-18 10:13 -23.23917 -44.81667 17592 ft 348 kts 77°
2026-04-18 10:13 -23.23363 -44.79123 17342 ft 344 kts 77°
2026-04-18 10:13 -23.22815 -44.76605 17091 ft 340 kts 77°
2026-04-18 10:14 -23.22272 -44.74114 16840 ft 338 kts 77°
2026-04-18 10:14 -23.21737 -44.71659 16592 ft 335 kts 77°
2026-04-18 10:14 -23.21196 -44.69172 16339 ft 333 kts 77°
2026-04-18 10:14 -23.20668 -44.66754 16091 ft 332 kts 77°
2026-04-18 10:15 -23.20136 -44.64316 15841 ft 330 kts 77°
2026-04-18 10:15 -23.19605 -44.61891 15590 ft 329 kts 77°
2026-04-18 10:15 -23.19072 -44.59478 15340 ft 328 kts 77°
2026-04-18 10:15 -23.18489 -44.57085 15090 ft 327 kts 75°
2026-04-18 10:16 -23.17857 -44.54704 14840 ft 329 kts 74°
2026-04-18 10:16 -23.17190 -44.52318 14598 ft 331 kts 73°
2026-04-18 10:16 -23.16492 -44.49924 14360 ft 332 kts 73°
2026-04-18 10:16 -23.15780 -44.47516 14111 ft 334 kts 72°
2026-04-18 10:17 -23.15060 -44.45112 13865 ft 336 kts 72°
2026-04-18 10:17 -23.14333 -44.42698 13606 ft 336 kts 72°
2026-04-18 10:17 -23.13605 -44.40297 13360 ft 330 kts 72°
2026-04-18 10:17 -23.12896 -44.37952 13105 ft 320 kts 72°
2026-04-18 10:18 -23.12206 -44.35677 12840 ft 314 kts 72°
2026-04-18 10:18 -23.11534 -44.33479 12634 ft 309 kts 72°
2026-04-18 10:18 -23.10861 -44.31267 12435 ft 308 kts 72°
2026-04-18 10:18 -23.10193 -44.29068 12235 ft 306 kts 72°
2026-04-18 10:19 -23.09521 -44.26859 12034 ft 308 kts 72°
2026-04-18 10:19 -23.08844 -44.24632 11833 ft 310 kts 72°
2026-04-18 10:19 -23.08167 -44.22403 11633 ft 311 kts 72°
2026-04-18 10:19 -23.07488 -44.20170 11432 ft 311 kts 72°
2026-04-18 10:20 -23.06811 -44.17944 11233 ft 311 kts 72°
2026-04-18 10:20 -23.06131 -44.15711 11033 ft 311 kts 72°
2026-04-18 10:20 -23.05449 -44.13476 10798 ft 313 kts 72°
2026-04-18 10:20 -23.04772 -44.11253 10557 ft 313 kts 72°
2026-04-18 10:21 -23.04087 -44.09010 10328 ft 310 kts 72°
2026-04-18 10:21 -23.03412 -44.06796 10074 ft 309 kts 72°
2026-04-18 10:21 -23.02738 -44.04592 9866 ft 305 kts 72°
2026-04-18 10:21 -23.02074 -44.02421 9640 ft 302 kts 72°
2026-04-18 10:22 -23.01414 -44.00262 9414 ft 300 kts 72°
2026-04-18 10:22 -23.00760 -43.98126 9189 ft 298 kts 72°
2026-04-18 10:22 -23.00115 -43.96018 8966 ft 297 kts 72°
2026-04-18 10:22 -22.99466 -43.93899 8741 ft 295 kts 72°
2026-04-18 10:23 -22.98818 -43.91782 8515 ft 294 kts 72°
2026-04-18 10:23 -22.98175 -43.89685 8290 ft 293 kts 72°
2026-04-18 10:23 -22.97533 -43.87594 8065 ft 292 kts 72°
2026-04-18 10:23 -22.96890 -43.85498 7839 ft 292 kts 71°
2026-04-18 10:24 -22.96247 -43.83405 7634 ft 290 kts 71°
2026-04-18 10:24 -22.95612 -43.81343 7492 ft 286 kts 71°
2026-04-18 10:24 -22.94980 -43.79289 7262 ft 285 kts 71°
2026-04-18 10:24 -22.94353 -43.77255 7036 ft 284 kts 71°
2026-04-18 10:25 -22.93732 -43.75237 6812 ft 283 kts 71°
2026-04-18 10:25 -22.93108 -43.73212 6630 ft 280 kts 71°
2026-04-18 10:25 -22.92505 -43.71252 6509 ft 276 kts 71°
2026-04-18 10:25 -22.91901 -43.69294 6435 ft 272 kts 71°
2026-04-18 10:26 -22.91291 -43.67317 6361 ft 275 kts 71°
2026-04-18 10:26 -22.90688 -43.65362 6345 ft 280 kts 71°
2026-04-18 10:26 -22.90065 -43.63344 6347 ft 283 kts 71°
2026-04-18 10:26 -22.89443 -43.61308 6252 ft 289 kts 71°
2026-04-18 10:27 -22.88833 -43.59211 5848 ft 289 kts 72°
2026-04-18 10:27 -22.88289 -43.57128 5449 ft 284 kts 74°
2026-04-18 10:27 -22.87820 -43.55077 5056 ft 279 kts 75°
2026-04-18 10:27 -22.87336 -43.53052 4659 ft 274 kts 74°
2026-04-18 10:28 -22.86842 -43.51088 4280 ft 261 kts 73°
2026-04-18 10:28 -22.86364 -43.49265 3888 ft 249 kts 73°
2026-04-18 10:28 -22.85865 -43.47522 3632 ft 232 kts 73°
2026-04-18 10:28 -22.85365 -43.45914 3528 ft 220 kts 73°
2026-04-18 10:29 -22.84874 -43.44280 3501 ft 236 kts 75°
2026-04-18 10:29 -22.84402 -43.42515 3376 ft 247 kts 77°
2026-04-18 10:29 -22.83979 -43.40689 3064 ft 257 kts 79°
2026-04-18 10:29 -22.83580 -43.38808 2690 ft 248 kts 79°
2026-04-18 10:30 -22.83192 -43.37030 2280 ft 238 kts 78°
2026-04-18 10:30 -22.82785 -43.35350 1906 ft 231 kts 76°
2026-04-18 10:30 -22.82358 -43.33675 1595 ft 223 kts 74°
2026-04-18 10:30 -22.81950 -43.32175 1338 ft 195 kts 73°
2026-04-18 10:31 -22.81581 -43.30864 1045 ft 169 kts 73°
2026-04-18 10:31 -22.81257 -43.29723 803 ft 146 kts 74°
2026-04-18 10:31 -22.80969 -43.28645 640 ft 157 kts 75°
2026-04-18 10:31 -22.80681 -43.27463 472 ft 168 kts 76°
2026-04-18 10:32 -22.80386 -43.26240 231 ft 166 kts 75°
2026-04-18 10:32 -22.80100 -43.25149 105 ft 126 kts 73°
2026-04-18 10:32 -22.79898 -43.24366 45 ft 87 kts 72°
2026-04-18 10:32 -22.79808 -43.24035 45 ft 23 kts 75°
2026-04-18 10:33 -22.79788 -43.23922 45 ft 1 kts 117°
2026-04-18 10:33 -22.79803 -43.23918 45 ft 10 kts 192°
2026-04-18 10:33 -22.79870 -43.23985 45 ft 18 kts 228°
2026-04-18 10:33 -22.79975 -43.24112 45 ft 26 kts 228°
2026-04-18 10:34 -22.80103 -43.24268 45 ft 29 kts 229°
2026-04-18 10:34 -22.80233 -43.24432 45 ft 21 kts 236°
2026-04-18 10:34 -22.80295 -43.24568 45 ft 17 kts 249°
2026-04-18 10:34 -22.80300 -43.24583 45 ft 0 kts 249°